Aeroporto :
LOGIN :

Iscrizione | Disclaimer

   EN    FR    IT 

 










Sommario :    VFR   VFR Marginale   IFR   IFR Intensivo   IFR Molto Intensivo
Visibilità : 
Base nubi : 
>= 8 km
>= 3000ft
5 / 8 km
1000 / 3000 ft
1500m / 5 km
500 / 1000 ft
800 / 1500m
200 / 500 ft
< 800m
< 200 ft
Simboli :   Temporali  Nebbia  Neve Forte  Precipitazioni Forti  Vento > 20 kt
SIGMETs :   Varie  Temporali  Ghiacco  Turbolenza  Onda orograficha  Ceneri Vulcaniche






- Altitudine del aeroporto : 1585 ft
- Codice IATA : SIR


LSGS - Sion

ULTIMO METAR :
  • 182050Z AUTO VRB03KT CAVOK 04/M02 Q1029

METARs OBSOLETI :
  • 182020Z AUTO VRB03KT CAVOK 04/M02 Q1028
  • 181950Z AUTO 08004KT 060V120 CAVOK 04/M02 Q1028
  • 181920Z AUTO VRB02KT CAVOK 05/M02 Q1028
  • 181850Z AUTO 21005KT 160V260 CAVOK 06/M02 Q1028
  • 181820Z AUTO 22006KT 170V250 CAVOK 06/M02 Q1028

TAF TAF LSGS
Valido dal 18 a 15 ore il 19 a 00 ore UTC


181425Z 1815/1824 25012KT 9999 FEW060
BECMG 1817/1819 VRB03KT



MetMap, La meteo Aeronautica in un colpo d'occhio ! - Copyright ORBIFLY Dicembre 2007 - Disclaimer

ORBIFLY MET'MAP TEAM :

Programmazione e sviluppo : Alexandra Zaïnal
Concezione : Baudouin d'Aumeries
Aiuto per la programmazione : Marc-Olivier Méhu
Supporto tecnico e logistico : Manuel Goepfert
Aiuto per la traduzione : Arnaldo La Scala

Contatto : metmap@orbifly.com




FONTI E CREDITI :

   NOAA